THOR ABLESTAR DEB, 3842

Orbit data source: Space-Track

THOR ABLESTAR DEB, 3842 is space debris in LEO originally from a launch on Thu, 29 Jun 1961 UTC launched from the Air Force Eastern Test Range (AFETR). Debris objects in space refer to the collection of defunct objects orbiting the Earth. Examples of debris include non-operational satellites, rocket bodies, and fragments generated from explosions, collisions, or faulty payload assembly.

Loading next visibility...
Identifier
3842, 1961-015JF
Orbit
LEO
Country
Flag of USUS
Related business
Manufacturer
Unknown
Mission
Spacecraft
Bus & Motor
Unknown
Mass
Unknown
Launch date (UTC)
1961-06-29 (65 years ago)
Launch vehicle
Unknown
Launch site
Air Force Eastern Test Range (AFETR)
Object type
Payload
Rocket body
Debris
Shape & HBR
Unknown shape, 0.1 m
Radar Cross Section
Small (<0.1 m²)

Expand to show TLE details & history
Last TLE update: 11 hours ago

TLE from 11 hours ago
0 THOR ABLESTAR DEB
1  3842U 61015JF  26095.26790660  .00000535  00000-0  63013-3 0  9997
2  3842  66.7378 195.9957 0126431 161.3149 199.2624 13.72168428225175
Epoch: 2026-04-05T06:25Z
TLE epoch observation values (Epoch: 2026-04-05T06:25:47.130Z)
Latitude
-0.00003°
Longitude
-94.02646°
Altitude
1,081.948 km
Speed
7.268 km/s
True Right ascension
13h 03m 58s
True Declination
0° 00' 00"
Sunlit
Object was in full shadow at epoch
Visualization orbit readout
Latitude
Unknown
Longitude
Unknown
Altitude
Unknown
Speed
Unknown
Apparent Right ascension
Unknown
Apparent Declination
Unknown
Sunlit
N/A
Visualization observer readout
Local Sidereal Time
23:15:03
Azimuth
Unknown
Elevation
Unknown
Doppler factor
Unknown
Orbital elements
Apogee altitude
1,083.37 km
Perigee altitude
897.052 km
Semi-major axis
7,368.348 km
Eccentricity
0.01264
Inclination
66.7378°
RAAN
195.9957°
Arg. of periapsis
161.3149°
True anomaly
198.79149°
Mean anomaly
199.2624°
Eccentric anomaly
199.02625°
Mean motion
3.43153 °/min
Orbital period
104.91 mins
BSTAR
0.00063013
Loading maneuver chart data...
Computing Atmospheric mass density...

Documentation

Showing up to 5 results
|